{"data":{"norad_id":37392,"intl_designator":"2011-016A","name":"INTELSAT 28 (IS-28)","alt_names":[],"object_type":"PAYLOAD","status":"ACTIVE","operator":null,"country":"ITSO","launch_date":"2011-04-22","launch_site_code":"FRGUI","launch_vehicle":null,"mission":null,"orbit_class":"UNKNOWN","rcs_meters":25.1189,"size_class":null,"mass_kg":null,"dimensions":null,"purposes":["comms"],"wikipedia_slug":null,"has_3d_model":false,"image_url":null,"decayed_at":null,"tle_current":{"epoch":"2026-09-19T23:57:38.759328Z","epoch_age_seconds":57830,"freshness":"FRESH","line1":"1 37392U 11016A   26262.99836527 -.00000228  00000+0  00000+0 0  9991","line2":"2 37392   2.0438  81.3415 0003632 100.2145 145.0979  1.00272197 54230","mean_motion":1.00272197,"eccentricity":0.0003632,"inclination_deg":2.0438,"raan_deg":81.3415,"arg_perigee_deg":100.2145,"mean_anomaly_deg":145.0979,"bstar":0,"rev_number":5423,"period_min":1436.0910033716,"perigee_km":35771.165274331,"apogee_km":35801.793651729,"semimajor_km":42164.61646303,"source":"CELESTRAK","updated_at":"2026-09-20T09:00:35.519490Z"}}}